Weather in Chistoye Pole

Russia / Krasnoyarsk Krai     55°14′51″N   91°11′03″E
temp.,
°C
wind,
m/s
gust,
m/s
humid.,
%
clouds,
%
prec.,
mm/h
press.,
hPa
HPBL,
m
27 january, thu
thu2701:00−16sw1197100 0.0 103210
04:00−18sw1198100 0.0 10339
07:00−17wsw1197100 0.0 103510
10:00−18w0097100 0.0 10369
13:00−12sse118976 0.0 103684
16:00−13e0094100 0.0 10379
19:00−16ene1198100 0.1 10389
22:00−19ese0010093 0.1 10399
28 january, fri
fri2801:00−22wsw11100100 0.1 10409
04:00−25sw11100100 0.0 10409
07:00−27wsw11100100 0.1 10419
10:00−27wsw11100100 0.0 10419
13:00−18s019886 0.1 103872
16:00−18ene00998 0.0 10379
19:00−24ssw0110087 0.0 10389
22:00−27sw11100100 0.0 10399
29 january, sat
sat2901:00−28sw11100100 0.0 10389
04:00−27ssw11100100 0.0 10389
07:00−29sw1110095 0.0 10399
10:00−29sw1110099 0.0 10399
13:00−19s119775 0.0 103791
16:00−19se0098100 0.0 10379
19:00−21s11100100 0.0 10379
22:00−23s1110019 0.0 10389
30 january, sun
sun3001:00−27sw0010037 0.0 10389
04:00−28ssw1110013 0.0 10399
07:00−29sw111005 0.0 10399
10:00−28s0010012 0.0 10399
13:00−19s11895 0.0 103687
16:00−18ene00948 0.0 10359
19:00−24ssw009919 0.0 10369
22:00−26sw1110013 0.0 10369
31 january, mon
mon3101:00−28sw1110010 0.0 10369
04:00−28sw11995 0.0 10369
07:00−29sw11995 0.0 10369
10:00−28ssw11995 0.0 103710
13:00−18ssw11885 0.0 103489
16:00−17sse00935 0.0 10349
19:00−24sw111005 0.0 10369
22:00−26sw1110013 0.0 10379